Total_Precipitation_Accumulation
0.80 0.75 0.71 0.68 0.59 0.57 0.56 0.64 0.65 0.57 0.50 0.42 0.36 0.30 0.27 0.25 0.24 0.24 0.25 0.26 0.23 0.27 0.38 0.49 0.55 0.56 0.60 0.66 0.68 0.67 0.66 0.60 0.54 0.48 0.46 0.45 0.43 0.43 0.46 0.49 0.51 0.52 0.55
0.90 0.86 0.76 0.70 0.64 0.59 0.59 0.68 0.74 0.67 0.61 0.52 0.43 0.37 0.34 0.31 0.26 0.24 0.25 0.26 0.24 0.26 0.34 0.48 0.62 0.73 0.80 0.84 0.84 0.81 0.75 0.69 0.63 0.61 0.58 0.57 0.52 0.50 0.52 0.50 0.50 0.50 0.52
0.98 0.98 0.91 0.77 0.67 0.70 0.70 0.72 0.79 0.83 0.76 0.63 0.55 0.48 0.42 0.37 0.31 0.27 0.28 0.26 0.24 0.22 0.27 0.43 0.60 0.70 0.80 0.89 0.98 0.99 0.87 0.76 0.70 0.66 0.67 0.69 0.65 0.61 0.57 0.57 0.58 0.57 0.57
1.04 1.07 1.02 0.97 0.87 0.85 0.84 0.81 0.78 0.73 0.69 0.62 0.57 0.53 0.50 0.46 0.40 0.37 0.37 0.31 0.25 0.21 0.23 0.31 0.43 0.53 0.65 0.78 0.93 1.10 1.02 0.92 0.81 0.73 0.73 0.79 0.81 0.74 0.70 0.69 0.68 0.67 0.66
1.23 1.22 1.14 1.11 1.14 1.07 0.98 0.93 0.87 0.79 0.73 0.68 0.63 0.63 0.62 0.56 0.50 0.46 0.41 0.35 0.32 0.29 0.27 0.27 0.30 0.37 0.46 0.64 0.78 0.98 1.11 1.10 0.99 0.89 0.80 0.78 0.79 0.80 0.83 0.84 0.84 0.83 0.83
1.50 1.41 1.35 1.29 1.31 1.25 1.14 1.06 0.97 0.91 0.82 0.81 0.80 0.72 0.67 0.61 0.57 0.51 0.46 0.42 0.39 0.39 0.40 0.40 0.40 0.39 0.43 0.54 0.73 0.89 1.04 1.17 1.11 0.97 0.87 0.82 0.84 0.87 0.93 1.00 1.03 1.04 1.04
1.80 1.63 1.50 1.47 1.46 1.39 1.27 1.21 1.17 1.06 0.99 1.01 0.97 0.80 0.68 0.60 0.56 0.51 0.51 0.51 0.47 0.44 0.45 0.50 0.53 0.52 0.43 0.43 0.54 0.65 0.78 0.95 1.09 1.10 1.01 0.95 0.95 1.01 1.11 1.22 1.26 1.25 1.25
2.04 1.85 1.67 1.60 1.57 1.54 1.40 1.32 1.35 1.30 1.19 1.18 1.17 1.10 0.92 0.75 0.58 0.52 0.52 0.51 0.50 0.52 0.48 0.47 0.47 0.49 0.51 0.45 0.42 0.47 0.53 0.70 0.95 1.17 1.25 1.21 1.19 1.21 1.31 1.46 1.53 1.58 1.59
2.24 2.09 1.91 1.85 1.77 1.74 1.66 1.55 1.50 1.46 1.43 1.37 1.38 1.48 1.27 0.96 0.71 0.60 0.59 0.56 0.54 0.57 0.59 0.55 0.52 0.50 0.50 0.47 0.47 0.47 0.49 0.58 0.83 1.14 1.41 1.49 1.48 1.52 1.70 1.85 1.93 2.00 1.99
2.25 2.25 2.14 2.01 1.93 1.88 1.81 1.87 1.90 1.79 1.69 1.53 1.43 1.35 1.32 1.15 1.07 0.86 0.68 0.66 0.64 0.60 0.64 0.64 0.60 0.56 0.53 0.52 0.54 0.58 0.62 0.66 0.83 1.16 1.51 1.75 1.84 1.99 2.22 2.37 2.44 2.49 2.37
2.08 2.17 2.18 2.07 1.89 1.77 1.70 1.76 1.85 1.91 1.80 1.65 1.54 1.45 1.38 1.23 1.14 1.13 0.92 0.75 0.73 0.67 0.66 0.70 0.72 0.72 0.71 0.70 0.70 0.76 0.84 0.89 1.06 1.34 1.70 2.05 2.30 2.49 2.71 2.90 2.92 2.89 2.78
1.92 1.92 1.97 1.95 1.91 1.79 1.67 1.69 1.81 1.89 1.90 1.85 1.71 1.56 1.47 1.38 1.20 1.21 1.15 0.96 0.91 0.83 0.79 0.81 0.84 0.87 0.86 0.86 0.83 0.93 1.00 1.10 1.23 1.43 1.78 2.15 2.43 2.61 2.77 3.07 3.25 3.23 3.17
1.81 1.82 1.91 1.89 1.90 1.84 1.80 1.75 1.75 1.73 1.78 1.82 1.74 1.63 1.48 1.35 1.29 1.36 1.39 1.23 1.09 0.97 0.95 0.93 0.92 0.91 0.90 0.92 0.95 1.06 1.02 1.07 1.13 1.27 1.59 1.94 2.09 2.17 2.30 2.53 2.84 3.03 3.09
1.66 1.66 1.78 1.83 1.85 1.86 1.84 1.82 1.78 1.70 1.68 1.69 1.65 1.57 1.46 1.32 1.27 1.33 1.45 1.56 1.50 1.25 1.06 1.00 0.97 0.97 0.97 0.97 1.02 1.11 0.98 1.12 1.14 1.23 1.40 1.55 1.56 1.53 1.62 1.79 2.01 2.29 2.51
1.49 1.48 1.52 1.59 1.65 1.68 1.71 1.74 1.74 1.66 1.58 1.56 1.51 1.45 1.37 1.26 1.19 1.22 1.31 1.49 1.75 1.69 1.36 1.08 1.02 1.00 1.01 1.00 1.08 1.00 0.89 1.09 1.15 1.15 1.18 1.21 1.19 1.18 1.27 1.40 1.56 1.81 2.04
1.25 1.25 1.30 1.35 1.41 1.43 1.47 1.56 1.57 1.55 1.53 1.46 1.42 1.38 1.33 1.25 1.22 1.25 1.30 1.38 1.52 1.67 1.53 1.14 0.98 0.93 0.95 0.95 1.06 0.94 0.89 1.09 1.09 1.08 1.06 1.05 1.06 1.09 1.17 1.29 1.37 1.52 1.77
1.06 1.09 1.13 1.20 1.26 1.28 1.27 1.34 1.42 1.43 1.43 1.38 1.34 1.33 1.29 1.23 1.23 1.22 1.26 1.31 1.36 1.44 1.44 1.13 0.94 0.92 0.96 0.96 0.99 0.94 0.89 0.86 0.84 0.95 0.94 0.93 0.93 0.98 1.09 1.19 1.26 1.34 1.51
0.89 0.89 0.88 0.95 1.01 1.05 1.08 1.10 1.15 1.21 1.25 1.25 1.26 1.29 1.29 1.30 1.35 1.35 1.36 1.36 1.33 1.31 1.32 1.20 0.98 0.88 0.85 0.81 0.80 0.83 0.85 0.84 0.78 0.91 0.91 0.88 0.91 0.96 1.04 1.08 1.11 1.18 1.28
0.87 0.89 0.84 0.83 0.85 0.88 0.94 0.97 0.97 1.02 1.07 1.11 1.15 1.21 1.25 1.29 1.38 1.39 1.38 1.35 1.28 1.23 1.21 1.20 1.05 0.91 0.87 0.82 0.80 0.79 0.79 0.79 0.75 0.84 0.88 0.87 0.89 0.91 0.96 1.04 1.08 1.08 1.10
0.80 0.82 0.84 0.83 0.83 0.83 0.88 0.94 0.96 0.98 1.04 1.08 1.12 1.15 1.17 1.17 1.17 1.17 1.17 1.15 1.15 1.17 1.17 1.18 1.11 0.99 0.91 0.87 0.89 0.92 0.88 0.78 0.75 0.70 0.76 0.77 0.80 0.82 0.82 0.87 0.94 0.96 0.97
0.75 0.78 0.81 0.84 0.83 0.83 0.88 0.95 1.00 1.01 1.04 1.10 1.15 1.13 1.08 1.06 1.00 0.98 0.97 0.96 0.98 1.07 1.17 1.21 1.14 1.03 0.91 0.88 0.88 0.84 0.88 0.85 0.80 0.72 0.69 0.66 0.66 0.65 0.67 0.74 0.84 0.94 1.03
0.75 0.80 0.87 0.92 0.94 0.98 1.13 1.15 1.11 1.08 1.07 1.04 1.03 0.98 0.95 0.94 0.92 0.95 0.95 0.94 1.00 1.12 1.23 1.22 1.09 0.93 0.76 0.72 0.78 0.88 0.99 1.05 0.96 0.71 0.69 0.72 0.70 0.71 0.67 0.69 0.86 0.97 1.09
0.87 0.94 0.98 1.07 1.10 1.13 1.19 1.10 1.06 1.00 1.02 0.99 0.92 0.84 0.80 0.75 0.77 0.73 0.81 0.88 0.90 0.97 1.03 1.01 0.94 0.78 0.71 0.70 0.90 1.10 1.08 1.04 0.86 0.66 0.71 0.80 0.75 0.77 0.73 0.78 0.93 0.97 1.08
0.98 1.05 1.04 1.06 1.08 1.09 1.10 1.01 0.98 0.86 0.83 0.83 0.79 0.73 0.67 0.65 0.66 0.69 0.76 0.83 0.74 0.70 0.71 0.68 0.69 0.73 0.75 0.75 0.90 1.11 1.11 1.07 0.91 0.76 0.75 0.86 0.76 0.76 0.73 0.78 0.92 0.91 0.96
0.97 1.00 1.00 0.95 0.89 0.87 0.88 0.81 0.79 0.72 0.71 0.70 0.68 0.69 0.70 0.64 0.71 0.84 0.86 0.84 0.70 0.59 0.62 0.70 0.75 0.76 0.80 0.80 0.85 1.13 1.27 1.31 1.13 0.84 0.72 0.75 0.68 0.69 0.75 0.80 0.88 0.95 0.95
0.82 0.80 0.77 0.72 0.68 0.63 0.66 0.64 0.62 0.55 0.57 0.58 0.61 0.64 0.73 0.70 0.78 0.89 0.81 0.78 0.71 0.60 0.58 0.57 0.57 0.57 0.56 0.61 0.75 0.94 1.34 1.62 1.33 0.98 0.66 0.78 0.81 0.87 1.09 0.83 0.81 0.88 0.91